Daviess Cnty AP, Washington,, IN

6:02 AM EST on November 15, 2019 (GMT -0500)
Daviess County

Weather History for KDCY - September, 2019

Change the Weather History Date:

Saturday, September 21, 2019

  Actual Average (KLWV) Record (KLWV)
Temperature  
Mean Temperature 76 °F -  
Max Temperature 87 °F 77 °F 98 °F (2010)
Min Temperature 66 °F 51 °F 38 °F (1991)
Cooling Degree Days 12    
Growing Degree Days 26 (Base 50)    
Moisture  
Dew Point 64 °F    
Average Humidity 73    
Maximum Humidity 99    
Minimum Humidity 36    
Precipitation  
Precipitation 0.00 in - - ()
Sea Level Pressure  
Sea Level Pressure 30.17 in    
Wind  
Wind Speed 5 mph (South)    
Max Wind Speed 14 mph    
Max Gust Speed 21 mph    
Visibility 10 miles    
Events Rain    
Averages and records for this station are not official NWS values.
T = Trace of Precipitation, MM = Missing Value Source: NWS Daily Summary

Daily Weather History Graph

Daily Weather History Graph

Search for Another Location

Airport or City:

Astronomy

Sep. 21, 2019 Rise Set
Actual Time 7:35 AM EDT 7:47 PM EDT
Civil Twilight 7:08 AM EDT 8:13 PM EDT
Nautical Twilight 6:37 AM EDT 8:45 PM EDT
Astronomical Twilight 6:05 AM EDT 9:16 PM EDT
Moon No Moon Rise 2:36 PM EDT (9/21)
Length of Visible Light 13h 05m
Length of Day
12h 12m
Waning Gibbous, 55% of the Moon is Illuminated
Sep 21
Waning Gibbous
Sep 21
Last Quarter
Sep 28
New
Oct 5
First Quarter
Oct 13
Full

Hourly Weather History & Observations

Time (EDT) Temp. Heat Index Dew Point Humidity Pressure Visibility Wind Dir Wind Speed Gust Speed Precip Events Conditions
12:15 AM 70.2 °F - 70.0 °F 99% 30.16 in 10.0 mi Calm Calm - N/A   Clear
12:35 AM 69.3 °F - 69.1 °F 99% 30.16 in 10.0 mi Calm Calm - N/A   Clear
12:55 AM 68.9 °F - 68.5 °F 99% 30.17 in 10.0 mi South 4.6 mph - N/A   Clear
1:15 AM 70.0 °F - 69.8 °F 99% 30.17 in 10.0 mi South 4.6 mph - N/A   Clear
1:35 AM 70.7 °F - 70.2 °F 98% 30.17 in 10.0 mi Calm Calm - N/A   Clear
1:55 AM 69.6 °F - 69.3 °F 99% 30.18 in 10.0 mi West 3.5 mph - N/A   Clear
2:15 AM 69.3 °F - 68.9 °F 99% 30.18 in 10.0 mi Calm Calm - N/A   Clear
2:35 AM 68.2 °F - 68.0 °F 99% 30.17 in 10.0 mi Calm Calm - N/A   Clear
2:55 AM 68.0 °F - 67.6 °F 99% 30.17 in 10.0 mi Calm Calm - N/A   Clear
3:15 AM 68.0 °F - 67.5 °F 98% 30.17 in 10.0 mi Calm Calm - N/A   Clear
3:35 AM 68.9 °F - 68.5 °F 99% 30.17 in 10.0 mi South 3.5 mph - N/A   Clear
3:55 AM 69.3 °F - 69.1 °F 99% 30.17 in 10.0 mi South 3.5 mph - N/A   Clear
4:15 AM 69.1 °F - 68.9 °F 99% 30.17 in 10.0 mi South 4.6 mph - N/A   Clear
4:35 AM 69.1 °F - 68.9 °F 99% 30.18 in 10.0 mi Calm Calm - N/A   Clear
4:55 AM 69.1 °F - 68.9 °F 99% 30.18 in 10.0 mi South 3.5 mph - N/A   Scattered Clouds
5:15 AM 69.6 °F - 69.1 °F 98% 30.18 in 10.0 mi South 5.8 mph - N/A Rain Light Rain
5:35 AM 69.8 °F - 68.2 °F 95% 30.18 in 10.0 mi South 5.8 mph - N/A   Clear
5:55 AM 69.8 °F - 68.5 °F 96% 30.19 in 10.0 mi South 4.6 mph - N/A   Clear
6:15 AM 69.6 °F - 68.4 °F 96% 30.19 in 10.0 mi South 5.8 mph - N/A   Clear
6:35 AM 69.6 °F - 68.0 °F 95% 30.20 in 10.0 mi South 4.6 mph - N/A   Clear
6:55 AM 69.8 °F - 67.6 °F 93% 30.20 in 10.0 mi South 6.9 mph - N/A   Clear
7:15 AM 69.3 °F - 68.0 °F 96% 30.20 in 10.0 mi South 4.6 mph - N/A   Clear
7:30 AM 69.4 °F - 67.3 °F 93% 30.21 in 10.0 mi South 5.8 mph - N/A   Clear
7:55 AM 69.8 °F - 64.6 °F 83% 30.21 in 10.0 mi South 5.8 mph - N/A   Clear
8:15 AM 69.8 °F - 64.6 °F 83% 30.21 in 10.0 mi South 5.8 mph - N/A   Clear
8:35 AM 70.0 °F - 64.9 °F 84% 30.22 in 10.0 mi South 4.6 mph - N/A   Clear
8:55 AM 70.2 °F - 64.9 °F 83% 30.22 in 10.0 mi South 6.9 mph - N/A   Clear
9:15 AM 70.3 °F - 65.3 °F 84% 30.23 in 10.0 mi South 6.9 mph - N/A   Clear
9:35 AM 71.2 °F - 65.3 °F 81% 30.23 in 10.0 mi South 6.9 mph - N/A   Clear
9:55 AM 72.1 °F - 64.8 °F 78% 30.23 in 10.0 mi South 8.1 mph - N/A   Clear
10:15 AM 73.4 °F - 64.6 °F 74% 30.23 in 10.0 mi South 9.2 mph - N/A   Clear
10:35 AM 75.6 °F - 64.9 °F 69% 30.23 in 10.0 mi South 9.2 mph - N/A   Clear
10:55 AM 77.2 °F - 64.9 °F 66% 30.23 in 10.0 mi SSW 9.2 mph - N/A   Clear
11:15 AM 77.4 °F - 64.9 °F 65% 30.23 in 10.0 mi SSW 8.1 mph - N/A   Clear
11:35 AM 77.9 °F - 64.9 °F 64% 30.23 in 10.0 mi South 8.1 mph - N/A   Clear
11:55 AM 78.3 °F - 64.9 °F 63% 30.22 in 10.0 mi SSW 8.1 mph - N/A   Clear
12:15 PM 81.3 °F 83.2 °F 65.3 °F 58% 30.22 in 10.0 mi SSW 6.9 mph - N/A   Clear
12:35 PM 81.9 °F 83.5 °F 64.6 °F 56% 30.22 in 10.0 mi SW 8.1 mph 16.1 mph N/A   Clear
12:55 PM 83.3 °F 84.8 °F 64.4 °F 53% 30.21 in 10.0 mi South 10.4 mph 19.6 mph N/A   Clear
1:15 PM 84.2 °F 85.8 °F 64.6 °F 52% 30.20 in 10.0 mi South 9.2 mph - N/A   Clear
1:55 PM 85.5 °F 85.9 °F 61.9 °F 45% 30.19 in 10.0 mi South 12.7 mph 18.4 mph N/A   Clear
2:15 PM 85.3 °F 85.4 °F 61.2 °F 44% 30.18 in 10.0 mi SSW 12.7 mph 20.7 mph N/A   Clear
2:35 PM 85.6 °F 85.7 °F 60.8 °F 43% 30.17 in 10.0 mi SSW 13.8 mph - N/A   Clear
2:55 PM 86.7 °F 86.8 °F 61.0 °F 42% 30.17 in 10.0 mi SW 12.7 mph - N/A   Clear
3:15 PM 86.2 °F 86.1 °F 60.6 °F 42% 30.16 in 10.0 mi South 6.9 mph 10.4 mph N/A   Clear
3:35 PM 87.4 °F 87.2 °F 60.6 °F 40% 30.15 in 10.0 mi South 12.7 mph 19.6 mph N/A   Clear
3:55 PM 87.6 °F 87.2 °F 59.7 °F 39% 30.15 in 10.0 mi SW 13.8 mph 18.4 mph N/A   Clear
4:15 PM 87.6 °F 86.7 °F 58.1 °F 37% 30.14 in 10.0 mi SSW 11.5 mph 19.6 mph N/A   Clear
4:35 PM 87.8 °F 86.7 °F 57.4 °F 36% 30.13 in 10.0 mi South 10.4 mph - N/A   Clear
4:55 PM 86.0 °F 85.0 °F 57.6 °F 38% 30.13 in 10.0 mi SSW 12.7 mph - N/A   Clear
5:15 PM 85.5 °F 84.8 °F 58.5 °F 40% 30.12 in 10.0 mi SSW 8.1 mph - N/A   Clear
5:35 PM 85.3 °F 84.8 °F 58.8 °F 41% 30.12 in 10.0 mi South 8.1 mph - N/A   Clear
5:55 PM 84.6 °F 84.4 °F 59.7 °F 43% 30.12 in 10.0 mi South 4.6 mph - N/A   Clear
6:15 PM 84.2 °F 84.0 °F 59.2 °F 43% 30.12 in 10.0 mi SSW 5.8 mph - N/A   Clear
6:35 PM 82.8 °F 83.0 °F 60.3 °F 46% 30.12 in 10.0 mi SSW 4.6 mph - N/A   Clear
6:55 PM 81.9 °F 82.2 °F 60.1 °F 47% 30.12 in 10.0 mi SSW 4.6 mph - N/A   Clear
7:15 PM 80.4 °F 81.3 °F 60.8 °F 51% 30.12 in 10.0 mi South 4.6 mph - N/A   Clear
7:35 PM 78.1 °F - 61.0 °F 56% 30.11 in 10.0 mi South 3.5 mph - N/A   Clear
7:55 PM 74.5 °F - 63.0 °F 67% 30.11 in 10.0 mi Calm Calm - N/A   Clear
8:15 PM 70.9 °F - 63.7 °F 78% 30.11 in 10.0 mi Calm Calm - N/A   Clear
8:35 PM 70.2 °F - 62.1 °F 75% 30.12 in 10.0 mi South 3.5 mph - N/A   Clear
8:55 PM 69.8 °F - 62.8 °F 78% 30.12 in 10.0 mi South 4.6 mph - N/A   Clear
9:15 PM 70.2 °F - 62.2 °F 76% 30.12 in 10.0 mi SSE 4.6 mph - N/A   Clear
9:35 PM 70.7 °F - 60.8 °F 71% 30.12 in 10.0 mi SSE 4.6 mph - N/A   Clear
9:55 PM 68.2 °F - 61.7 °F 80% 30.12 in 10.0 mi SSE 5.8 mph - N/A   Clear
10:15 PM 67.1 °F - 60.6 °F 80% 30.13 in 10.0 mi South 5.8 mph - N/A   Clear
10:35 PM 68.0 °F - 60.4 °F 77% 30.13 in 10.0 mi South 5.8 mph - N/A   Clear
10:55 PM 67.8 °F - 60.1 °F 76% 30.13 in 10.0 mi South 5.8 mph - N/A   Clear
11:15 PM 66.9 °F - 59.9 °F 78% 30.12 in 10.0 mi SSE 4.6 mph - N/A   Clear
11:35 PM 66.9 °F - 59.5 °F 77% 30.12 in 10.0 mi South 6.9 mph - N/A   Clear
11:55 PM 67.1 °F - 59.2 °F 76% 30.12 in 10.0 mi South 5.8 mph - N/A   Clear